Location: Catenanuova
(37.5690°N, 14.6870°E)
Time: 21:40:35
(UTC+02:00)

BlueWalker 3 - Pass Details

Date: 20 May 2025
Orbit: 460 x 472 km, 53.2° (Epoch: 16 June)

Event Time Altitude Azimuth Distance (km) Brightness Sun altitude
Rises 22:34:52 0° 318° (NW) 2,492 6.9 -23.2°
Reaches altitude 10° 22:37:07 10° 327° (NNW) 1,617 5.6 -23.4°
Enters shadow 22:40:11 37° 21° (NNE) 741 3.0 -23.8°
